Weather History for Worland, WY

Change the Weather History Date:

Thursday, May 3, 2012

  Actual Average Record
Temperature  
Mean Temperature 55 °F 51 °F  
Max Temperature 75 °F 66 °F 89 °F (1986)
Min Temperature 35 °F 37 °F 25 °F (1967)
Degree Days  
Heating Degree Days 10 14  
Month to date heating degree days 28 43  
Since 1 July heating degree days 6406 7510  
Cooling Degree Days 0 0  
Month to date cooling degree days 0 0  
Year to date cooling degree days 3 1  
Growing Degree Days 4 (Base 50)    
Moisture  
Dew Point 28 °F    
Average Humidity 44    
Maximum Humidity 70    
Minimum Humidity 17    
Precipitation  
Precipitation T in 0.04 in 0.18 in (1991)
Month to date precipitation T 0.13  
Year to date precipitation 0.27 1.87  
Sea Level Pressure  
Sea Level Pressure 29.80 in    
Wind  
Wind Speed 4 mph (NNE)    
Max Wind Speed 15 mph    
Max Gust Speed -    
Visibility 10 miles    
Events      
T = Trace of Precipitation, MM = Missing Value Source: NWS Daily Summary

Daily Weather History Graph

Daily Weather History Graph

Search for Another Location

Airport:

Trip Planner

Search our weather history database for the weather conditions in past years. The results will help you decide how hot, cold, wet, or windy it might be!

Date:

Astronomy

May. 03, 2012 Rise Set
Actual Time 5:59 AM MDT 8:18 PM MDT
Civil Twilight 5:27 AM MDT 8:50 PM MDT
Nautical Twilight 4:48 AM MDT 9:29 PM MDT
Astronomical Twilight 4:04 AM MDT 10:14 PM MDT
Moon 5:42 PM MDT (5/3) 4:11 AM MDT (5/3)
Length of Visible Light 15h 22m
Length of Day
14h 18m
Waxing Gibbous, 91% of the Moon is Illuminated
May 3
Waxing Gibbous
May 5
Full
May 12
Last Quarter
May 20
New
May 28
First Quarter

Hourly Weather History & Observations

Time (MDT) Temp. Windchill Dew Point Humidity Pressure Visibility Wind Dir Wind Speed Gust Speed Precip Events Conditions
12:53 AM 46.9 °F - 26.1 °F 44% 29.82 in 10.0 mi Calm Calm - N/A   Clear
1:53 AM 45.0 °F - 27.0 °F 49% 29.81 in 10.0 mi Calm Calm - N/A   Clear
2:53 AM 42.1 °F 38.4 °F 27.0 °F 55% 29.83 in 10.0 mi SSE 5.8 mph - N/A   Clear
3:41 AM 39.2 °F 35.9 °F 26.6 °F 61% 29.89 in 2.5 mi NE 4.6 mph - N/A   Haze
3:48 AM 39.2 °F 35.9 °F 26.6 °F 61% 29.89 in 10.0 mi NNE 4.6 mph - N/A   Clear
3:53 AM 39.9 °F 36.7 °F 28.0 °F 63% 29.84 in 10.0 mi NE 4.6 mph - N/A   Clear
4:53 AM 37.0 °F - 27.0 °F 67% 29.86 in 10.0 mi Calm Calm - N/A   Clear
5:53 AM 36.0 °F 31.1 °F 26.1 °F 67% 29.87 in 10.0 mi ENE 5.8 mph - N/A   Clear
6:53 AM 41.0 °F - 26.1 °F 55% 29.90 in 10.0 mi Calm Calm - N/A   Clear
7:53 AM 44.1 °F - 27.0 °F 51% 29.91 in 10.0 mi Calm Calm - N/A   Clear
8:53 AM 45.0 °F - 25.0 °F 46% 29.90 in 10.0 mi Calm Calm - N/A   Clear
9:53 AM 46.9 °F - 25.0 °F 42% 29.91 in 10.0 mi NW 3.5 mph - N/A   Clear
10:53 AM 48.9 °F - 26.1 °F 41% 29.89 in 10.0 mi NE 4.6 mph - N/A   Clear
11:53 AM 52.0 °F - 28.0 °F 40% 29.84 in 10.0 mi Calm Calm - N/A   Clear
12:53 PM 57.2 °F - 28.4 °F 33% 29.82 in 10.0 mi Calm Calm - N/A   Clear
1:53 PM 64.9 °F - 26.1 °F 23% 29.72 in 10.0 mi ESE 4.6 mph - N/A   Clear
2:53 PM 71.1 °F - 25.0 °F 18% 29.67 in 10.0 mi ESE 4.6 mph - N/A   Clear
3:53 PM 73.9 °F - 28.9 °F 19% 29.63 in 10.0 mi West 6.9 mph - N/A   Clear
4:53 PM 73.0 °F - 28.0 °F 19% 29.64 in 10.0 mi West 8.1 mph - N/A   Clear
5:53 PM 72.0 °F - 27.0 °F 19% 29.65 in 10.0 mi WSW 11.5 mph - N/A   Mostly Cloudy
6:53 PM 70.0 °F - 30.9 °F 24% 29.67 in 10.0 mi WSW 15.0 mph - 0.00 in   Overcast
7:53 PM 66.9 °F - 32.0 °F 27% 29.70 in 10.0 mi West 9.2 mph - N/A   Clear
8:53 PM 64.0 °F - 27.0 °F 25% 29.74 in 10.0 mi Calm Calm - N/A   Clear
9:53 PM 61.0 °F - 28.9 °F 30% 29.78 in 10.0 mi NE 3.5 mph - N/A   Mostly Cloudy
10:53 PM 59.0 °F - 34.0 °F 39% 29.80 in 10.0 mi Calm Calm - N/A   Overcast
11:53 PM 57.0 °F - 30.9 °F 37% 29.79 in 10.0 mi Calm Calm - N/A   Partly Cloudy